AFR51PD LFMN-LFPG

Flight info

Callsign AFR51PD
Flight time N/A
Altitude 31000
Route OKTET DCT LOGNI DCT MOKIP DCT ARFOZ DCT TINIL
Aircraft A320/M-SDE2E3FGIJ1RWY/HB1

Departure

Time N/A
Airport Nice-Côte d'Azur Airport (LFMN)

Arrival

Time 2026-05-06 15:45
Airport Charles de Gaulle International Airport (LFPG)
Time Latitude Longitude Altitude Speed Heading
2026-05-06 15:37 48.99271 3.05844 4903 ft 222 kts 290°
2026-05-06 15:38 48.99716 3.03635 4805 ft 210 kts 290°
2026-05-06 15:38 49.00133 3.01561 4723 ft 200 kts 290°
2026-05-06 15:38 49.00531 2.99581 4633 ft 191 kts 290°
2026-05-06 15:38 49.00911 2.97681 4551 ft 186 kts 290°
2026-05-06 15:39 49.01213 2.95778 4457 ft 186 kts 276°
2026-05-06 15:39 49.01195 2.93794 4340 ft 188 kts 270°
2026-05-06 15:39 49.01109 2.91806 4190 ft 188 kts 270°
2026-05-06 15:39 49.01012 2.89814 4101 ft 189 kts 269°
2026-05-06 15:40 49.00913 2.87820 3914 ft 189 kts 269°
2026-05-06 15:40 49.00812 2.85828 3663 ft 189 kts 269°
2026-05-06 15:40 49.00711 2.83834 3436 ft 189 kts 269°
2026-05-06 15:40 49.00609 2.81837 3177 ft 189 kts 269°
2026-05-06 15:41 49.00509 2.79871 2928 ft 188 kts 269°
2026-05-06 15:41 49.00406 2.77873 2669 ft 186 kts 268°
2026-05-06 15:41 49.00308 2.75979 2458 ft 176 kts 269°
2026-05-06 15:41 49.00214 2.74177 2192 ft 165 kts 268°
2026-05-06 15:42 49.00128 2.72533 1981 ft 147 kts 269°
2026-05-06 15:42 49.00052 2.71055 1789 ft 135 kts 268°
2026-05-06 15:42 48.99980 2.69654 1606 ft 131 kts 269°
2026-05-06 15:42 48.99908 2.68275 1433 ft 130 kts 269°
2026-05-06 15:43 48.99837 2.66914 1239 ft 128 kts 269°
2026-05-06 15:43 48.99766 2.65554 1069 ft 129 kts 269°
2026-05-06 15:43 48.99695 2.64200 887 ft 128 kts 269°
2026-05-06 15:43 48.99623 2.62843 719 ft 129 kts 268°
2026-05-06 15:44 48.99543 2.61513 561 ft 124 kts 270°
2026-05-06 15:44 48.99497 2.60207 411 ft 122 kts 269°
2026-05-06 15:44 48.99421 2.58953 355 ft 109 kts 267°
2026-05-06 15:44 48.99373 2.57995 356 ft 77 kts 265°
2026-05-06 15:45 48.99344 2.57395 352 ft 35 kts 265°
2026-05-06 15:45 48.99320 2.57038 352 ft 33 kts 265°
2026-05-06 15:45 48.99336 2.56766 361 ft 23 kts 294°
2026-05-06 15:45 48.99445 2.56645 354 ft 15 kts 354°
2026-05-06 15:46 48.99560 2.56630 354 ft 18 kts 355°
2026-05-06 15:46 48.99692 2.56614 354 ft 20 kts 355°
2026-05-06 15:46 48.99817 2.56561 358 ft 18 kts 304°
2026-05-06 15:46 48.99818 2.56364 354 ft 20 kts 265°
2026-05-06 15:47 48.99805 2.56150 354 ft 19 kts 265°
2026-05-06 15:47 48.99800 2.55936 354 ft 22 kts 278°
2026-05-06 15:47 48.99839 2.55707 354 ft 23 kts 287°
2026-05-06 15:47 48.99944 2.55549 357 ft 21 kts 340°
2026-05-06 15:48 49.00085 2.55487 359 ft 22 kts 344°
2026-05-06 15:48 49.00234 2.55421 361 ft 22 kts 343°
2026-05-06 15:48 49.00388 2.55354 355 ft 23 kts 344°
2026-05-06 15:48 49.00522 2.55372 361 ft 20 kts 46°
2026-05-06 15:49 49.00554 2.55586 357 ft 22 kts 84°
2026-05-06 15:49 49.00567 2.55827 361 ft 24 kts 85°
2026-05-06 15:49 49.00592 2.56027 355 ft 19 kts 70°
2026-05-06 15:49 49.00616 2.56228 355 ft 19 kts 86°
2026-05-06 15:50 49.00624 2.56412 356 ft 16 kts 85°
2026-05-06 15:50 49.00633 2.56577 355 ft 15 kts 85°
2026-05-06 15:50 49.00641 2.56731 355 ft 14 kts 85°
2026-05-06 15:50 49.00650 2.56876 357 ft 13 kts 85°
2026-05-06 15:51 49.00660 2.57027 355 ft 17 kts 81°
2026-05-06 15:51 49.00694 2.57197 362 ft 16 kts 57°
2026-05-06 15:51 49.00757 2.57317 357 ft 15 kts 82°
2026-05-06 15:51 49.00745 2.57395 357 ft 5 kts 147°
2026-05-06 15:52 49.00719 2.57399 355 ft 3 kts 181°
2026-05-06 15:52 49.00714 2.57399 355 ft 0 kts 182°
2026-05-06 15:52 49.00713 2.57398 355 ft 0 kts 182°